GW1622 Weather Reports


Display with metric or nautical units.
time (UTC)temp
F
wind
direction
speed
MPH
gust
MPH
rain 1hr
in
rain 24hr
in
rain mn
in
humidity
%
barometer
mb
20260508174019 64 0 0.0 4.0 0.00 0.00 0.00 85 1016.8
20260508173517 64 287 0.0 4.0 0.00 0.00 0.00 85 1016.8
20260508173030 64 27 1.0 4.0 0.00 0.00 0.00 85 1016.8
20260508172516 63 0 1.0 4.0 0.00 0.00 0.00 86 1016.9
20260508172014 63 0 1.0 4.0 0.00 0.00 0.00 87 1017.0
20260508171532 63 51 1.0 4.0 0.00 0.00 0.00 87 1016.9
20260508171014 63 0 0.0 2.0 0.00 0.00 0.00 87 1016.9
20260508170514 62 0 0.0 3.0 0.00 0.00 0.00 88 1016.9
20260508170032 62 82 0.0 3.0 0.00 0.00 0.00 87 1017.0
20260508165513 62 109 0.0 2.0 0.00 0.00 0.00 87 1017.1
20260508165016 62 0 0.0 3.0 0.00 0.00 0.00 88 1017.0
20260508164536 62 0 0.0 3.0 0.00 0.00 0.00 88 1017.1
20260508164014 62 204 0.0 2.0 0.00 0.00 0.00 87 1017.0
20260508163515 62 0 0.0 1.0 0.00 0.00 0.00 88 1017.0
20260508163032 62 0 0.0 2.0 0.00 0.00 0.00 88 1017.1
20260508162515 62 0 0.0 2.0 0.00 0.00 0.00 88 1017.1
20260508162015 61 0 0.0 2.0 0.00 0.00 0.00 88 1017.1
20260508161531 61 0 0.0 2.0 0.00 0.00 0.00 88 1017.1
20260508161013 61 301 0.0 2.0 0.00 0.00 0.00 89 1017.0
20260508160515 61 0 0.0 2.0 0.00 0.00 0.00 89 1017.1
20260508160034 61 254 0.0 2.0 0.00 0.00 0.00 90 1017.2
20260508155516 61 0 0.0 2.0 0.00 0.00 0.00 90 1017.2
20260508155013 61 0 0.0 2.0 0.00 0.00 0.00 90 1017.2
20260508154535 61 0 0.0 2.0 0.00 0.00 0.00 90 1017.2
20260508154014 61 0 0.0 2.0 0.00 0.00 0.00 91 1017.2
20260508153518 61 0 0.0 2.0 0.00 0.00 0.00 90 1017.2
20260508153033 61 105 0.0 2.0 0.00 0.00 0.00 91 1017.2
20260508152516 60 60 0.0 2.0 0.00 0.00 0.00 91 1017.1
20260508152013 61 0 0.0 1.0 0.00 0.00 0.00 91 1017.2
20260508151534 60 0 0.0 1.0 0.00 0.00 0.00 91 1017.2
20260508151014 60 0 0.0 1.0 0.00 0.00 0.00 91 1017.3
20260508150514 60 0 0.0 1.0 0.00 0.00 0.00 91 1017.3
20260508150039 60 0 0.0 1.0 0.00 0.00 0.00 91 1017.2
20260508145519 60 0 0.0 2.0 0.00 0.00 0.00 91 1017.2
20260508145015 60 0 0.0 2.0 0.00 0.00 0.00 91 1017.1
20260508144536 60 0 0.0 2.0 0.00 0.00 0.00 91 1017.0
20260508144015 60 0 0.0 1.0 0.00 0.00 0.00 91 1017.0
20260508143518 60 0 0.0 2.0 0.00 0.00 0.00 91 1017.1
20260508143030 60 0 0.0 2.0 0.00 0.00 0.00 92 1017.1
20260508142516 60 0 0.0 2.0 0.00 0.00 0.00 92 1017.1
20260508142013 60 0 0.0 2.0 0.00 0.00 0.00 92 1017.0
20260508141532 60 0 0.0 2.0 0.00 0.00 0.00 92 1017.0
20260508141014 60 0 0.0 1.0 0.00 0.00 0.00 92 1017.0
20260508140513 60 0 0.0 2.0 0.00 0.00 0.00 92 1016.9
20260508140034 60 0 0.0 2.0 0.00 0.00 0.00 92 1016.8
20260508135516 60 0 0.0 2.0 0.00 0.00 0.00 92 1016.8
20260508135018 60 0 0.0 2.0 0.00 0.00 0.00 92 1016.8
20260508134535 60 130 0.0 2.0 0.00 0.00 0.00 92 1016.9
20260508134015 60 0 0.0 1.0 0.00 0.00 0.00 92 1016.7
20260508133517 60 0 0.0 1.0 0.00 0.00 0.00 92 1016.7
20260508133037 60 0 0.0 1.0 0.00 0.00 0.00 92 1016.7
20260508132516 60 0 0.0 1.0 0.00 0.00 0.00 92 1016.7
20260508132017 60 0 0.0 1.0 0.00 0.00 0.00 92 1016.5
20260508131534 60 0 0.0 2.0 0.00 0.00 0.00 91 1016.5
20260508131016 60 130 0.0 2.0 0.00 0.00 0.00 91 1016.5
20260508130516 60 0 0.0 1.0 0.00 0.00 0.00 91 1016.4
20260508130042 60 130 0.0 2.0 0.00 0.00 0.00 91 1016.3
20260508125514 60 0 0.0 2.0 0.00 0.00 0.00 91 1016.4
20260508125017 60 0 0.0 2.0 0.00 0.00 0.00 91 1016.4
20260508124533 60 0 0.0 2.0 0.00 0.00 0.00 91 1016.3
20260508124014 60 129 0.0 2.0 0.00 0.00 0.00 91 1016.3
20260508123514 60 0 0.0 2.0 0.00 0.00 0.00 91 1016.3
20260508123032 60 0 0.0 2.0 0.00 0.00 0.00 91 1016.3
20260508122515 60 140 0.0 2.0 0.00 0.00 0.00 90 1016.3
20260508122018 60 0 0.0 3.0 0.00 0.00 0.00 90 1016.3
20260508121534 60 140 0.0 3.0 0.00 0.00 0.00 90 1016.2
20260508121016 60 164 0.0 2.0 0.00 0.00 0.00 90 1016.2
20260508120515 60 0 0.0 2.0 0.00 0.00 0.00 90 1016.3
20260508120034 60 0 0.0 3.0 0.00 0.00 0.00 90 1016.2
20260508115516 60 0 0.0 3.0 0.00 0.00 0.00 89 1016.2
20260508115015 60 178 0.0 3.0 0.00 0.00 0.00 89 1016.2
20260508114531 60 0 0.0 2.0 0.00 0.00 0.00 89 1016.2
20260508114019 60 0 0.0 1.0 0.00 0.00 0.00 89 1016.3
20260508113517 60 178 0.0 2.0 0.00 0.00 0.00 89 1016.2
20260508113030 60 178 0.0 2.0 0.00 0.00 0.00 89 1016.2
20260508112515 60 178 0.0 1.0 0.00 0.00 0.00 89 1016.2
20260508112017 60 178 0.0 1.0 0.00 0.00 0.00 89 1016.2
20260508111532 60 0 0.0 3.0 0.00 0.00 0.00 89 1016.2
20260508111016 60 0 0.0 3.0 0.00 0.00 0.00 89 1016.2
20260508110516 60 176 0.0 2.0 0.00 0.00 0.00 89 1016.1
20260508110033 60 0 0.0 2.0 0.00 0.00 0.00 89 1016.2
20260508105517 60 106 0.0 2.0 0.00 0.00 0.00 89 1016.1
20260508105017 60 158 0.0 2.0 0.00 0.00 0.00 89 1016.2
20260508104554 60 0 0.0 1.0 0.00 0.00 0.00 89 1016.1
20260508104015 60 0 0.0 1.0 0.00 0.00 0.00 89 1016.2
20260508103513 60 0 0.0 0.0 0.00 0.00 0.00 89 1016.1
20260508103042 60 0 0.0 0.0 0.00 0.00 0.00 89 1016.3
20260508102513 60 0 0.0 0.0 0.00 0.00 0.00 88 1016.3
20260508102016 60 0 0.0 0.0 0.00 0.00 0.00 89 1016.2
20260508101531 60 0 0.0 0.0 0.00 0.00 0.00 88 1016.4
20260508101014 60 0 0.0 0.0 0.00 0.00 0.00 88 1016.4
20260508100516 60 0 0.0 2.0 0.00 0.00 0.00 88 1016.4
20260508100033 60 0 0.0 4.0 0.00 0.00 0.00 88 1016.4
20260508095515 60 158 1.0 4.0 0.00 0.00 0.00 88 1016.4
20260508095015 60 173 1.0 3.0 0.00 0.00 0.00 88 1016.4
20260508094534 60 136 0.0 2.0 0.00 0.00 0.00 88 1016.3
20260508094015 60 136 0.0 1.0 0.00 0.00 0.00 88 1016.3
20260508093516 61 0 0.0 0.0 0.00 0.00 0.00 88 1016.3
20260508093034 61 0 0.0 0.0 0.00 0.00 0.00 88 1016.3
20260508092514 61 0 0.0 0.0 0.00 0.00 0.00 88 1016.2
20260508092013 61 0 0.0 0.0 0.00 0.00 0.00 88 1016.2
20260508091534 61 0 0.0 1.0 0.00 0.00 0.00 88 1016.3
20260508091016 60 0 0.0 1.0 0.00 0.00 0.00 88 1016.2
20260508090516 60 0 0.0 1.0 0.00 0.00 0.00 88 1016.3
20260508090036 61 0 0.0 0.0 0.00 0.00 0.00 88 1016.3
20260508085513 61 0 0.0 0.0 0.00 0.00 0.00 88 1016.3
20260508085015 60 0 0.0 2.0 0.00 0.00 0.00 88 1016.5
20260508084531 61 0 0.0 2.0 0.00 0.00 0.00 88 1016.5
20260508084015 60 136 0.0 4.0 0.00 0.00 0.00 88 1016.5
20260508083516 61 0 0.0 4.0 0.00 0.00 0.00 88 1016.6
20260508083037 61 136 0.0 2.0 0.00 0.00 0.00 88 1016.6
20260508082514 61 136 0.0 2.0 0.00 0.00 0.00 88 1016.7
20260508082014 61 0 0.0 3.0 0.00 0.00 0.00 88 1016.7
20260508081530 61 136 0.0 3.0 0.00 0.00 0.00 88 1016.8
20260508081015 61 0 0.0 2.0 0.00 0.00 0.00 88 1016.9
20260508080515 61 0 0.0 2.0 0.00 0.00 0.00 88 1016.8
20260508080030 61 0 0.0 2.0 0.00 0.00 0.00 88 1017.0
20260508075516 61 0 0.0 2.0 0.00 0.00 0.00 88 1017.0
20260508075016 61 150 0.0 1.0 0.00 0.00 0.00 88 1017.0
20260508074533 61 0 0.0 2.0 0.00 0.00 0.00 88 1017.0
20260508074013 61 0 0.0 2.0 0.00 0.00 0.00 88 1017.0
20260508073515 61 150 0.0 0.0 0.00 0.00 0.00 88 1017.0
20260508073032 61 0 0.0 1.0 0.00 0.00 0.00 88 1017.0
20260508072513 61 0 0.0 1.0 0.00 0.00 0.00 88 1017.0
20260508072016 61 0 0.0 3.0 0.00 0.00 0.00 88 1017.0
20260508071533 61 0 0.0 3.0 0.00 0.00 0.00 88 1017.1
20260508071037 61 183 0.0 3.0 0.00 0.00 0.00 88 1017.2
20260508070516 61 0 0.0 1.0 0.00 0.00 0.00 88 1017.1
20260508070107 61 0 0.0 3.0 0.00 0.00 0.00 88 1017.2
20260508065514 61 0 0.0 3.0 0.00 0.00 0.00 88 1017.2
20260508065017 61 171 1.0 3.0 0.00 0.00 0.00 87 1017.2
20260508064538 61 160 0.0 2.0 0.00 0.00 0.00 88 1017.1
20260508064018 61 0 1.0 2.0 0.00 0.00 0.00 87 1017.1
20260508063518 61 0 0.0 1.0 0.00 0.00 0.00 88 1017.2
20260508063037 61 160 0.0 1.0 0.00 0.00 0.00 88 1017.2
20260508062515 61 0 0.0 1.0 0.00 0.00 0.00 88 1017.3
20260508062016 61 0 0.0 4.0 0.00 0.00 0.00 88 1017.3
20260508061532 61 0 0.0 4.0 0.00 0.00 0.00 88 1017.3
20260508061019 61 0 0.0 1.0 0.00 0.00 0.00 88 1017.2
20260508060516 61 0 0.0 1.0 0.00 0.00 0.00 88 1017.3
20260508060038 61 160 0.0 2.0 0.00 0.00 0.00 88 1017.3
20260508055517 61 0 0.0 2.0 0.00 0.00 0.00 88 1017.3
20260508055020 61 160 0.0 2.0 0.00 0.00 0.00 88 1017.3
20260508054537 61 0 0.0 2.0 0.00 0.00 0.00 88 1017.3
20260508054017 61 0 0.0 2.0 0.00 0.00 0.00 88 1017.2
20260508053516 61 160 0.0 2.0 0.00 0.00 0.00 88 1017.2
20260508053037 61 160 0.0 2.0 0.00 0.00 0.00 87 1017.3
20260508052514 61 0 0.0 2.0 0.00 0.00 0.00 87 1017.2
20260508052016 61 160 0.0 2.0 0.00 0.00 0.00 87 1017.3
20260508051536 61 0 0.0 3.0 0.00 0.00 0.00 87 1017.3
20260508051020 61 110 1.0 3.0 0.00 0.00 0.00 87 1017.2
20260508050516 61 0 0.0 2.0 0.00 0.00 0.00 87 1017.2
20260508050035 61 0 0.0 2.0 0.00 0.00 0.00 87 1017.1
20260508045517 61 0 0.0 2.0 0.00 0.00 0.00 87 1017.2
20260508045017 61 110 0.0 2.0 0.00 0.00 0.00 88 1017.2
20260508044532 61 110 0.0 2.0 0.00 0.00 0.00 88 1017.1
20260508044018 61 0 0.0 1.0 0.00 0.00 0.00 87 1017.2
20260508043517 61 0 0.0 1.0 0.00 0.00 0.00 88 1017.2
20260508043050 61 0 0.0 3.0 0.00 0.00 0.00 88 1017.1
20260508042518 61 0 1.0 3.0 0.00 0.00 0.00 88 1016.9
20260508042015 61 0 0.0 1.0 0.00 0.00 0.00 88 1016.8
20260508041537 61 0 0.0 1.0 0.00 0.00 0.00 88 1016.8
20260508041016 61 57 0.0 2.0 0.00 0.00 0.00 88 1016.7
20260508040516 61 0 0.0 2.0 0.00 0.00 0.00 88 1016.6
20260508040035 60 0 0.0 1.0 0.00 0.00 0.00 88 1016.5
20260508035516 60 57 0.0 0.0 0.00 0.00 0.00 88 1016.5
20260508035015 60 0 0.0 0.0 0.00 0.00 0.00 88 1016.5
20260508034534 60 0 0.0 1.0 0.00 0.00 0.00 88 1016.4
20260508034018 60 0 0.0 1.0 0.00 0.00 0.00 88 1016.4
20260508033516 60 0 0.0 1.0 0.00 0.00 0.00 88 1016.3
20260508033033 60 57 0.0 1.0 0.00 0.00 0.00 88 1016.1
20260508032518 60 0 0.0 2.0 0.00 0.00 0.00 88 1016.1
20260508032016 60 0 0.0 2.0 0.00 0.00 0.00 89 1016.1
20260508031531 60 0 0.0 0.0 0.00 0.00 0.00 88 1016.0
20260508031015 60 0 0.0 1.0 0.00 0.00 0.00 88 1016.0
20260508030520 60 0 0.0 1.0 0.00 0.00 0.00 88 1015.9
20260508030048 60 0 0.0 1.0 0.00 0.00 0.00 88 1015.9
20260508025517 60 0 0.0 1.0 0.00 0.00 0.00 88 1015.8
20260508025017 60 0 0.0 1.0 0.00 0.00 0.00 88 1015.7
20260508024536 60 0 0.0 1.0 0.00 0.00 0.00 87 1015.7
20260508024017 60 0 0.0 2.0 0.00 0.00 0.00 87 1015.7
20260508023515 60 0 0.0 2.0 0.00 0.00 0.00 87 1015.6
20260508023032 60 0 0.0 1.0 0.00 0.00 0.00 87 1015.7
20260508022517 60 0 0.0 1.0 0.00 0.00 0.00 87 1015.7
20260508022018 61 0 0.0 2.0 0.00 0.00 0.00 87 1015.5
20260508021537 61 0 0.0 2.0 0.00 0.00 0.00 86 1015.5
20260508021020 61 0 0.0 3.0 0.00 0.00 0.00 86 1015.5
20260508020521 61 0 0.0 3.0 0.00 0.00 0.00 86 1015.3
20260508020034 61 55 0.0 3.0 0.00 0.00 0.00 86 1015.4
20260508015515 61 0 0.0 3.0 0.00 0.00 0.00 85 1015.4
20260508015015 61 18 0.0 4.0 0.00 0.00 0.00 85 1015.4
20260508014534 61 0 0.0 4.0 0.00 0.00 0.00 85 1015.4
20260508014017 62 0 1.0 4.0 0.00 0.00 0.00 84 1015.4
20260508013519 62 33 0.0 3.0 0.00 0.00 0.00 85 1015.5
20260508013031 62 57 0.0 3.0 0.00 0.00 0.00 84 1015.5
20260508012516 62 0 1.0 3.0 0.00 0.00 0.00 84 1015.5
20260508012016 62 0 0.0 2.0 0.00 0.00 0.00 83 1015.4
20260508011535 63 342 0.0 3.0 0.00 0.00 0.00 83 1015.3
20260508011015 63 0 0.0 3.0 0.00 0.00 0.00 83 1015.3
20260508010517 62 0 0.0 2.0 0.00 0.00 0.00 83 1015.3
20260508010035 62 0 1.0 2.0 0.00 0.00 0.00 83 1015.2
20260508005519 63 0 0.0 2.0 0.00 0.00 0.00 82 1015.4
20260508005012 63 0 0.0 2.0 0.00 0.00 0.00 82 1015.3
20260508004529 63 0 0.0 4.0 0.00 0.00 0.00 82 1015.3
20260508004017 63 0 1.0 4.0 0.00 0.00 0.00 81 1015.3
20260508003512 64 325 0.0 5.0 0.00 0.00 0.00 81 1015.3
20260508003032 64 66 1.0 5.0 0.00 0.00 0.00 81 1015.2
20260508002515 64 242 0.0 4.0 0.00 0.00 0.00 80 1015.3
20260508002012 65 144 0.0 4.0 0.00 0.00 0.00 80 1015.4
20260508001531 65 328 0.0 4.0 0.00 0.00 0.00 80 1015.2
20260508001015 64 12 1.0 4.0 0.00 0.00 0.00 81 1015.3
20260508000519 65 249 1.0 4.0 0.00 0.00 0.00 79 1015.4
20260508000033 64 0 0.0 4.0 0.00 0.00 0.00 80 1015.4
20260507235515 64 0 1.0 4.0 0.00 0.00 0.00 80 1015.4
20260507235014 64 0 0.0 4.0 0.00 0.00 0.00 81 1015.5
20260507234539 65 57 0.0 4.0 0.00 0.00 0.00 80 1015.4
20260507234013 64 192 0.0 6.0 0.00 0.00 0.00 81 1015.4
20260507233514 64 360 1.0 6.0 0.00 0.00 0.00 80 1015.3
20260507233030 65 12 3.0 6.0 0.00 0.00 0.00 79 1015.0
20260507232512 64 0 1.0 6.0 0.00 0.00 0.00 80 1015.2
20260507232012 64 82 1.0 4.0 0.00 0.00 0.00 80 1015.2
20260507231531 64 44 2.0 4.0 0.00 0.00 0.00 80 1015.2
20260507231013 65 55 1.0 4.0 0.00 0.00 0.00 79 1015.4
20260507230514 65 41 1.0 5.0 0.00 0.00 0.00 77 1015.5
20260507230032 66 76 1.0 5.0 0.00 0.00 0.00 78 1015.5
20260507225516 65 38 2.0 5.0 0.00 0.00 0.00 79 1015.4
20260507225013 65 134 2.0 4.0 0.00 0.00 0.00 77 1015.5
20260507224531 66 146 1.0 4.0 0.00 0.00 0.00 76 1015.4
20260507224014 67 360 1.0 6.0 0.00 0.00 0.00 76 1015.7
20260507223515 67 313 1.0 6.0 0.00 0.00 0.00 76 1015.7
20260507223030 67 336 1.0 6.0 0.00 0.00 0.00 77 1015.5
20260507222513 67 104 1.0 6.0 0.00 0.00 0.00 77 1015.6
20260507222014 66 12 2.0 9.0 0.00 0.00 0.00 76 1015.7
20260507221530 67 69 2.0 9.0 0.00 0.00 0.00 76 1015.8
20260507221012 67 35 1.0 4.0 0.00 0.00 0.00 76 1015.8
20260507220513 66 0 1.0 4.0 0.00 0.00 0.00 77 1015.7
20260507220030 67 92 1.0 7.0 0.00 0.00 0.00 77 1015.7
20260507215512 67 76 1.0 7.0 0.00 0.00 0.00 75 1015.7
20260507215018 68 73 1.0 6.0 0.00 0.00 0.00 75 1015.8
20260507214534 68 103 2.0 8.0 0.00 0.00 0.00 74 1015.9
20260507214017 68 63 2.0 8.0 0.00 0.00 0.00 74 1016.1
20260507213519 68 69 2.0 8.0 0.00 0.00 0.00 74 1016.1
20260507213032 69 107 2.0 8.0 0.00 0.00 0.00 74 1016.1
20260507212515 68 0 1.0 6.0 0.00 0.00 0.00 76 1016.1
20260507212014 68 51 1.0 8.0 0.00 0.00 0.00 75 1016.1
20260507211532 69 55 1.0 8.0 0.00 0.00 0.00 72 1016.2
20260507211014 69 79 1.0 5.0 0.00 0.00 0.00 73 1016.3
20260507210515 69 348 2.0 8.0 0.00 0.00 0.00 71 1016.2
20260507210035 70 192 2.0 8.0 0.00 0.00 0.00 72 1016.1
20260507205515 70 53 1.0 7.0 0.00 0.00 0.00 72 1016.2
20260507205014 71 28 1.0 7.0 0.00 0.00 0.00 71 1016.3
20260507204535 71 62 2.0 6.0 0.00 0.00 0.00 70 1016.2
20260507204016 71 30 1.0 7.0 0.00 0.00 0.00 70 1016.1
20260507203517 69 39 1.0 7.0 0.00 0.00 0.00 73 1016.2
20260507203035 70 103 2.0 6.0 0.00 0.00 0.00 70 1016.2
20260507202516 70 92 2.0 8.0 0.00 0.00 0.00 72 1016.2
20260507202014 69 84 2.0 8.0 0.00 0.00 0.00 73 1016.4
20260507201538 70 278 2.0 8.0 0.00 0.00 0.00 73 1016.5
20260507201015 69 65 2.0 8.0 0.00 0.00 0.00 72 1016.5
20260507200515 69 227 2.0 8.0 0.00 0.00 0.00 73 1016.6
20260507200035 69 0 2.0 8.0 0.00 0.00 0.00 71 1016.6
20260507195517 69 98 2.0 8.0 0.00 0.00 0.00 73 1016.5
20260507195017 68 140 2.0 7.0 0.00 0.00 0.00 73 1016.5
20260507194545 69 82 2.0 6.0 0.00 0.00 0.00 72 1016.4
20260507194016 69 315 2.0 7.0 0.00 0.00 0.00 73 1016.5
20260507193515 68 70 2.0 7.0 0.00 0.00 0.00 73 1016.6
20260507193033 69 295 2.0 7.0 0.00 0.00 0.00 73 1016.7
20260507192515 69 121 2.0 8.0 0.00 0.00 0.00 73 1016.5
20260507192015 69 352 1.0 8.0 0.00 0.00 0.00 73 1016.7
20260507191535 70 258 2.0 10.0 0.00 0.00 0.00 71 1016.6
20260507191017 68 217 2.0 10.0 0.00 0.00 0.00 73 1016.7
20260507190515 69 75 2.0 7.0 0.00 0.00 0.00 72 1016.8
20260507190033 70 262 2.0 9.0 0.00 0.00 0.00 70 1016.9
20260507185517 70 27 1.0 9.0 0.00 0.00 0.00 71 1017.0
20260507185017 70 290 1.0 7.0 0.00 0.00 0.00 73 1017.1
20260507184537 70 278 2.0 7.0 0.00 0.00 0.00 72 1017.1
20260507184017 69 325 2.0 8.0 0.00 0.00 0.00 73 1017.1
20260507183518 69 24 2.0 8.0 0.00 0.00 0.00 75 1017.2
20260507183041 69 87 2.0 8.0 0.00 0.00 0.00 74 1017.2
20260507182515 68 262 2.0 7.0 0.00 0.00 0.00 74 1017.2
20260507182016 68 92 2.0 9.0 0.00 0.00 0.00 75 1017.2
20260507181538 67 105 2.0 9.0 0.00 0.00 0.00 75 1017.2
20260507181016 68 5 2.0 7.0 0.00 0.00 0.00 74 1017.3
20260507180516 68 57 2.0 5.0 0.00 0.00 0.00 73 1017.3
20260507180032 69 342 1.0 7.0 0.00 0.00 0.00 74 1017.2
20260507175517 68 19 1.0 7.0 0.00 0.00 0.00 75 1017.2
20260507175016 67 67 1.0 6.0 0.00 0.00 0.00 75 1017.4
20260507174535 67 38 2.0 6.0 0.00 0.00 0.00 75 1017.3